• Join FlightAware (Why Join?)
  • Login
  • US Flag 
10:53AM EDT


 

Airport Tracker/Info


-or-


 

Live Flight TrackerFlight Track Log ✈ EJA982 ✈ 27 Apr 2013 ✈ KBFI - KRNO

Flight Track Log - Related Links

Times and Time Zones

All times are in EDT time to prevent confusion due to time zone crossing. See the EJA982 flight status page for this flight to view local times or setup timezone preferences in your user account.

Time Position Orientation Groundspeed Altitude Reporting Facility
EDT Latitude Longitude Course Direction KTS MPH feet Rate Location/Type
05:58PM 47.5144 -122.2897 141° Southeast 173 199 1,200  Level Seattle Center
06:00PM 47.4661 -122.2311 141° Southeast 215 247 4,100 2,940 Climbing Seattle Center
06:00PM 47.4244 -122.1844 143° Southeast 250 288 6,700 3,360 Climbing Seattle Center
06:01PM 47.4069 -122.1819 174° South 268 308 7,500 3,120 Climbing Seattle Center
06:01PM 47.3489 -122.1686 171° South 280 322 9,900 2,520 Climbing Seattle Center
06:02PM 47.2611 -122.1472 171° South 329 379 12,100 2,040 Climbing Seattle Center
06:03PM 47.1603 -122.1239 171° South 369 425 14,100 1,980 Climbing Seattle Center
06:04PM 47.0558 -122.0983 171° South 383 441 16,200 1,800 Climbing Seattle Center
06:05PM 46.9522 -122.0683 169° South 385 443 17,800 1,260 Climbing Seattle Center
06:06PM 46.8439 -122.0292 166° South 403 464 18,800 1,140 Climbing Seattle Center
06:07PM 46.7342 -121.9878 166° South 411 473 20,100 1,380 Climbing Seattle Center
06:08PM 46.6211 -121.9447 165° South 424 488 21,600 1,200 Climbing Seattle Center
06:09PM 46.5083 -121.9031 166° South 423 487 22,600 1,200 Climbing Seattle Center
06:10PM 46.3711 -121.8519 166° South 429 494 24,100 1,380 Climbing Seattle Center
06:11PM 46.2542 -121.8111 166° South 434 499 25,400 1,260 Climbing Seattle Center
06:12PM 46.1486 -121.7694 165° South 442 509 26,700 1,380 Climbing Seattle Center
06:13PM 46.0242 -121.7239 166° South 459 528 28,200 1,440 Climbing Seattle Center
06:15PM 45.9000 -121.6778 166° South 463 533 29,700 1,620 Climbing Seattle Center
06:16PM 45.7464 -121.6214 166° South 475 547 31,500 1,620 Climbing Seattle Center
06:17PM 45.6169 -121.5747 166° South 482 555 33,000 1,680 Climbing Seattle Center
06:18PM 45.4861 -121.5269 166° South 486 559 34,900 1,980 Climbing Seattle Center
06:19PM 45.3569 -121.4806 166° South 482 555 37,100 2,160 Climbing Seattle Center
06:20PM 45.2331 -121.4361 166° South 466 536 39,300 1,620 Climbing Seattle Center
06:21PM 45.1103 -121.3922 166° South 459 528 40,500 840 Climbing Seattle Center
06:22PM 44.9856 -121.3486 166° South 463 533 41,000 240 Climbing Seattle Center
06:23PM 44.8544 -121.3017 166° South 484 557 41,000  Level Seattle Center
06:24PM 44.7172 -121.2550 166° South 504 580 41,000  Level Seattle Center
06:25PM 44.5808 -121.2067 166° South 514 592 41,000  Level Seattle Center
06:26PM 44.4397 -121.1575 166° South 520 598 41,000  Level Seattle Center
06:27PM 44.2986 -121.1089 166° South 518 596 41,000  Level Seattle Center
06:28PM 44.1583 -121.0611 166° South 520 598 41,000  Level Seattle Center
06:29PM 43.9906 -121.0036 166° South 521 600 41,000  Level Seattle Center
06:30PM 43.8533 -120.9569 166° South 514 592 41,000  Level Seattle Center
06:31PM 43.7144 -120.9108 167° South 515 593 41,000  Level Seattle Center
06:32PM 43.5758 -120.8633 166° South 514 592 41,000  Level Seattle Center
06:33PM 43.4294 -120.8200 168° South 517 595 41,000  Level Seattle Center
06:34PM 43.2906 -120.7706 165° South 514 592 41,000  Level Seattle Center
06:35PM 43.1497 -120.7242 166° South 516 594 41,000  Level Seattle Center
06:36PM 43.0117 -120.6775 166° South 511 588 41,000  Level Seattle Center
06:37PM 42.8731 -120.6319 166° South 511 588 41,000  Level Seattle Center
06:38PM 42.7361 -120.5886 167° South 506 582 41,000  Level Seattle Center
06:39PM 42.5986 -120.5433 166° South 506 582 41,000  Level Seattle Center
06:40PM 42.4625 -120.4831 162° South 510 587 41,000  Level Seattle Center
06:41PM 42.3386 -120.3767 148° Southeast 525 604 41,000  Level Seattle Center
06:42PM 42.2172 -120.2736 148° Southeast 518 596 41,000  Level Seattle Center
06:43PM 42.0936 -120.1789 150° Southeast 513 590 41,000  Level Seattle Center
06:44PM 41.9547 -120.1567 173° South 508 585 41,000  Level Seattle Center
06:45PM 41.8111 -120.1489 178° South 513 590 41,000  Level Seattle Center
06:46PM 41.6742 -120.1425 178° South 503 579 41,000 -360 Level Seattle Center
06:47PM 41.5386 -120.1342 177° South 490 564 40,300 -1,740 Descending Seattle Center
06:48PM 41.3978 -120.1261 178° South 501 577 37,600 -2,700 Descending Seattle Center
06:49PM 41.2575 -120.1197 178° South 503 579 34,900 -2,700 Descending Seattle Center
06:50PM 41.1142 -120.1019 175° South 516 594 32,200 -2,400 Descending Seattle Center
06:51PM 40.9725 -120.0600 167° South 521 600 30,100 -2,040 Descending Seattle Center
06:52PM 40.8342 -120.0214 168° South 512 589 28,100 -2,220 Descending Seattle Center
06:52PM 40.7786 -120.0039 167° South 510 587 27,100 -2,520 Descending Oakland Center
06:53PM 40.6400 -119.9658 168° South 507 583 24,700 -2,460 Descending Oakland Center
06:54PM 40.4839 -119.9219 168° South 497 572 22,100 -2,400 Descending Oakland Center
06:55PM 40.3564 -119.8872 168° South 474 545 19,900 -2,100 Descending Oakland Center
06:56PM 40.2356 -119.8519 167° South 456 525 17,800 -1,860 Descending Oakland Center
06:57PM 40.1147 -119.8183 168° South 447 514 16,200 -900 Descending Oakland Center
06:58PM 39.9950 -119.7858 168° South 443 510 16,000 -420 Descending Oakland Center
06:59PM 39.8783 -119.7542 168° South 435 501 15,400 -1,140 Descending Oakland Center
07:00PM 39.7689 -119.7231 168° South 416 479 13,800 -1,380 Descending Oakland Center
07:01PM 39.6758 -119.6994 169° South 358 412 12,700 -1,920 Descending Oakland Center
07:02PM 39.6000 -119.7000 180° South 301 346 10,300 -2,940 Descending Northern Cal TRACON
07:03PM 39.5167 -119.7167 189° South 290 334 7,400 -2,160 Descending Northern Cal TRACON
07:04PM 39.4500 -119.7333 191° South 236 272 6,000 -1,200 Descending Northern Cal TRACON
07:05PM 39.4500 -119.7667 270° West 187 215 5,200 -900 Descending Northern Cal TRACON
07:07PM 39.4833 -119.7667 237° Southwest  Level FlightAware Approximate
07:14PM 39.4991 -119.7681 237° Southwest  Level Estimated